Cape Charles Weather Center

Moon Phase Calendar



Online Cameras

 


      

Current Conditions in Eastville
7/30/2021 4:40:40 PM

87°F
Feels Like 96
Clouds
Humidity
69%
Pressure
29.8"
Wind
1 mph (NE)
Dew Point
75°F
UV Index
2/10 (Low)
Visibility
6 mi

Hourly Forecast

Date & Time Fri, Jul 30
4:00 PM
Fri, Jul 30
5:00 PM
Fri, Jul 30
6:00 PM
Fri, Jul 30
7:00 PM
Fri, Jul 30
8:00 PM
Fri, Jul 30
9:00 PM
Fri, Jul 30
10:00 PM
Fri, Jul 30
11:00 PM
Sat, Jul 31
12:00 AM
Sat, Jul 31
1:00 AM
Sat, Jul 31
2:00 AM
Sat, Jul 31
3:00 AM
Sat, Jul 31
4:00 AM
Sat, Jul 31
5:00 AM
Sat, Jul 31
6:00 AM
Sat, Jul 31
7:00 AM
Sat, Jul 31
8:00 AM
Sat, Jul 31
9:00 AM
Sat, Jul 31
10:00 AM
Sat, Jul 31
11:00 AM
Sat, Jul 31
12:00 PM
Sat, Jul 31
1:00 PM
Sat, Jul 31
2:00 PM
Sat, Jul 31
3:00 PM
Sat, Jul 31
4:00 PM
Sat, Jul 31
5:00 PM
Sat, Jul 31
6:00 PM
Sat, Jul 31
7:00 PM
Sat, Jul 31
8:00 PM
Sat, Jul 31
9:00 PM
Sat, Jul 31
10:00 PM
Sat, Jul 31
11:00 PM
Sun, Aug 1
12:00 AM
Sun, Aug 1
1:00 AM
Sun, Aug 1
2:00 AM
Sun, Aug 1
3:00 AM
Sun, Aug 1
4:00 AM
Sun, Aug 1
5:00 AM
Sun, Aug 1
6:00 AM
Sun, Aug 1
7:00 AM
Sun, Aug 1
8:00 AM
Sun, Aug 1
9:00 AM
Sun, Aug 1
10:00 AM
Sun, Aug 1
11:00 AM
Sun, Aug 1
12:00 PM
Sun, Aug 1
1:00 PM
Sun, Aug 1
2:00 PM
Sun, Aug 1
3:00 PM
Condition
Clouds

Clouds

Clouds

Clouds

Clouds

Clouds

Clouds

Clouds

Clouds

Clouds

Clouds

Clouds

Clouds

Clouds

Clouds

Clouds

Clouds

Clouds

Clouds

Clouds

Clouds

Clouds

Clouds

Clouds

Clouds

Clouds

Clouds

Clouds

Clouds

Clouds

Clouds

Clouds

Clouds

Clouds

Clouds

Rain

Clouds

Rain

Rain

Rain

Rain

Rain

Rain

Rain

Rain

Rain

Clouds

Rain
Temperature 86°F87°F86°F85°F83°F82°F79°F78°F78°F77°F77°F76°F75°F74°F73°F73°F73°F75°F76°F76°F77°F78°F78°F78°F78°F78°F76°F75°F73°F73°F74°F74°F74°F74°F74°F74°F74°F73°F73°F73°F72°F73°F75°F73°F77°F78°F77°F77°F
Feels Like 94°F96°F94°F92°F89°F86°F79°F79°F79°F78°F78°F77°F76°F74°F73°F73°F74°F75°F76°F77°F78°F78°F79°F78°F78°F78°F77°F75°F74°F74°F74°F74°F74°F75°F75°F75°F75°F74°F74°F74°F74°F74°F76°F75°F78°F79°F78°F79°F
Cloudiness 89%90%90%91%83%88%46%32%49%59%66%100%98%77%79%76%79%35%31%42%48%59%60%58%76%77%83%76%80%100%91%94%93%94%95%100%100%100%100%100%100%100%100%100%93%92%93%90%
Visibility 6 mi6 mi6 mi6 mi6 mi6 mi6 mi6 mi6 mi6 mi6 mi6 mi6 mi6 mi6 mi6 mi6 mi6 mi6 mi6 mi6 mi6 mi6 mi6 mi6 mi6 mi6 mi6 mi6 mi6 mi6 mi6 mi6 mi6 mi6 mi6 mi6 mi6 mi6 mi6 mi4 mi6 mi6 mi4 mi6 mi6 mi6 mi6 mi
Precipitation 33%25%25%17%13%23%0%0%0%0%0%0%0%0%0%0%0%0%0%0%0%0%0%0%0%0%0%0%0%0%0%0%0%0%7%34%44%58%73%80%97%84%88%92%96%100%80%80%
Humidity 68%69%67%67%70%71%75%77%78%78%76%70%71%75%78%73%72%68%66%63%61%61%60%60%60%61%64%69%75%75%76%76%78%79%79%83%84%89%90%90%92%92%87%90%82%80%82%80%
Dew Point 74°F75°F74°F73°F72°F71°F70°F70°F70°F70°F69°F66°F65°F65°F65°F63°F64°F64°F64°F63°F63°F63°F63°F63°F63°F63°F63°F64°F65°F65°F65°F66°F66°F67°F67°F68°F69°F70°F70°F70°F70°F70°F70°F70°F71°F71°F71°F71°F
Pressure 29.8"29.8"29.8"29.83"29.85"29.85"29.91"29.91"29.91"29.91"29.94"29.94"29.94"29.94"29.97"29.97"29.97"29.97"30"30"30"29.97"29.97"29.97"29.94"29.94"29.94"29.94"29.94"29.94"29.97"29.94"29.94"29.91"29.91"29.91"29.91"29.91"29.91"29.91"29.91"29.91"29.91"29.88"29.88"29.88"29.85"29.83"
Wind Speed 11.5 mph6.5 mph6.7 mph2.4 mph2.9 mph4 mph4.4 mph4.2 mph4 mph8 mph11.6 mph12.9 mph13.6 mph14.1 mph15.4 mph15.9 mph15.7 mph14.9 mph14.2 mph12.3 mph11.2 mph10.8 mph9.8 mph9.3 mph8.3 mph7.6 mph9.6 mph11 mph11.9 mph12.3 mph10.8 mph11.1 mph11 mph11.5 mph9.6 mph10.7 mph7.4 mph8 mph10.6 mph11.6 mph11.4 mph13.7 mph14.5 mph13.7 mph12.3 mph10.7 mph10.9 mph10.8 mph
Wind
Direction
340°
NNW

N
28°
NNE
354°
N
183°
S
109°
ESE
111°
ESE
96°
E
68°
ENE
55°
NE
69°
ENE
51°
NE
43°
NE
46°
NE
49°
NE
52°
NE
53°
NE
58°
ENE
63°
ENE
60°
ENE
65°
ENE
63°
ENE
61°
ENE
69°
ENE
67°
ENE
65°
ENE
75°
ENE
83°
E
85°
E
87°
E
91°
E
92°
E
104°
ESE
107°
ESE
128°
SE
133°
SE
128°
SE
137°
SE
143°
SE
140°
SE
135°
SE
119°
ESE
131°
SE
130°
SE
130°
SE
135°
SE
136°
SE
136°
SE

Daily Forecast

Date High Low Precip. Humidity
Today
Jul 30

Rain
87 °F
78 °F
39%
65%
Saturday
Jul 31

Clouds
78 °F
73 °F
0%
61%
Sunday
Aug 1

Rain
78 °F
72 °F
100%
82%
Monday
Aug 2

Rain
79 °F
73 °F
100%
55%
Tuesday
Aug 3

Clouds
75 °F
71 °F
9%
64%
Wednesday
Aug 4

Rain
75 °F
70 °F
89%
80%
Thursday
Aug 5

Rain
74 °F
72 °F
100%
86%
Friday
Aug 6

Rain
76 °F
74 °F
100%
93%
Saturday
Aug 7

Rain
76 °F
74 °F
100%
83%
Sunday
Aug 8

Rain
81 °F
74 °F
87%
71%
Monday
Aug 9

Rain
81 °F
76 °F
80%
71%
Tuesday
Aug 10

Rain
84 °F
76 °F
89%
68%
Wednesday
Aug 11

Rain
86 °F
77 °F
35%
66%
Thursday
Aug 12

Clear
86 °F
78 °F
1%
61%
Friday
Aug 13

Rain
85 °F
79 °F
37%
66%
Saturday
Aug 14

Rain
86 °F
77 °F
74%
66%

Temperature 8-14 Day Outlook



Precipitation 8-14 Day Outlook




Quick Links
Cape Charles News
Cape Charles Photos
Cape Charles Videos




About Us
Contact Us
Site Map
Search Site
Advertise With Us
   
CapeCharles.USCoast.info
THE CAPE CHARLES WEBSITE

Copyright 2021, Coastal Town
Privacy    |    Legal